(386913) = 2011 HU83

Discovered at Kitt Peak on 2009-09-27 by Spacewatch.

Orbit

Orbit type: Main Belt

Note: WebGL enabled browser required.

epoch2023-09-13.0
epoch JD2460200.5
perihelion date2021-02-27.27631
perihelion JD2459272.77631
argument of perihelion (°)128.08426
ascending node (°)43.67677
inclination (°)7.69590
eccentricity0.1257409
perihelion distance (AU)1.9674023
Tisserand w.r.t. Jupiter3.6
ΔV w.r.t. Earth (km/sec)9.0
semimajor axis (AU)2.2503653
mean anomaly (°)270.85881
mean daily motion (°/day)0.29196060
aphelion distance (AU)2.533
period (years)3.38
P-vector [x]-0.98478297
P-vector [y]0.08484495
P-vector [z]0.15167014
Q-vector [x]-0.14713897
Q-vector [y]-0.87146906
Q-vector [z]-0.46785874
absolute magnitude18.14
phase slope0.15
uncertainty0
referenceMPEC 2024-A48
observations used140
oppositions9
arc length (days)8820
first opposition used1999
last opposition used2024
residual rms (arc-secs)0.89
perturbers coarse indicatorM-v
perturbers precise indicator003Ek
first observation date used1999-11-10.0
last observation date used2024-01-03.0
computer nameMPCLINUX
Minimum Orbit Intersection Distances (in AU)
for orbit epoch: 2460200.5, reference: E2024-A48
Mercury1.5693
Venus1.24891
Earth0.98067
Mars0.33873
Jupiter2.43925
Saturn6.77756
Uranus16.4885
Neptune27.3449

Observations

144 total observations over interval: 1999 11 10.36428 – 2024 01 03.417351
These data are available for download (format description).

